This is the latest recevied weather packets stored in our database for station/object WB4E-13. If no packets are shown the sender has not sent any weather packets the latest 10 day(s).
| Time | Temp. | Humidity | Pressure | Rain* | Wind** | Luminosity | Snow |
|---|---|---|---|---|---|---|---|
| 1777491758 | 24.44° C | 74% | 1007 hPa | 0 mm | - | - | - |
| 1777491158 | 24.44° C | 74% | 1007.2 hPa | 0 mm | - | - | - |
| 1777490558 | 23.89° C | 78% | 1007.5 hPa | 0 mm | - | - | - |
| 1777489957 | 23.33° C | 78% | 1007.6 hPa | 0 mm | - | - | - |
| 1777489434 | 23.33° C | 79% | 1007.7 hPa | 0 mm | - | - | - |
| 1777489362 | 23.33° C | 79% | 1007.7 hPa | 0 mm | - | - | - |
| 1777488762 | 23.33° C | 77% | 1007.7 hPa | 0 mm | - | - | - |
| 1777488162 | 23.33° C | 79% | 1007.9 hPa | 0 mm | - | - | - |
| 1777487562 | 22.78° C | 82% | 1008 hPa | 0 mm | - | - | - |
| 1777486962 | 22.78° C | 80% | 1008.1 hPa | 0 mm | - | - | - |
| 1777486361 | 22.78° C | 79% | 1008.1 hPa | 0 mm | - | - | - |
| 1777485761 | 22.22° C | 81% | 1008.1 hPa | 0 mm | - | - | - |
| 1777485161 | 22.22° C | 82% | 1008.2 hPa | 0 mm | - | - | - |
| 1777484561 | 21.67° C | 83% | 1008.2 hPa | 0 mm | - | - | - |
| 1777483961 | 21.67° C | 83% | 1008.2 hPa | 0 mm | - | - | - |
| 1777483360 | 21.67° C | 85% | 1008.3 hPa | 0 mm | - | - | - |
| 1777482760 | 20.56° C | 84% | 1008.6 hPa | 0 mm | - | - | - |
| 1777482160 | 20.56° C | 84% | 1008.7 hPa | 0 mm | - | - | - |
| 1777481560 | 20.56° C | 82% | 1008.8 hPa | 0 mm | - | - | - |
| 1777480960 | 21.11° C | 82% | 1008.8 hPa | 0 mm | - | - | - |
| 1777480360 | 21.11° C | 81% | 1008.5 hPa | 0 mm | - | - | - |
| 1777479760 | 21.11° C | 81% | 1008.8 hPa | 0 mm | - | - | - |
| 1777479159 | 21.11° C | 81% | 1009.1 hPa | 0 mm | - | - | - |
| 1777478560 | 21.11° C | 80% | 1009.2 hPa | 0 mm | - | - | - |
| 1777477959 | 21.11° C | 79% | 1009.1 hPa | 0 mm | - | - | - |
* Rain latest hour (hover to see other rain measurements)
** Current wind speed in m/s (hover to see current wind gust speed)